Location: New Canada
(47.1017°N, 68.5042°W)
Time: 16:45:42
(UTC+00:00)

CUTE 1.7 + AOD 2 - Visible Passes

Search period start: 20 March 2023 00:00
Search period end: 30 March 2023 00:00
Orbit: 584 x 603 km, 97.7° (Epoch: 19 March)

Date Brightness Start Highest point End Pass type
(mag) Time Alt. Az. Time Alt. Az. Time Alt. Az.
20 Mar ? 06:53:57 10° ENE 06:54:52 11° E 06:54:58 11° E visible
20 Mar ? 08:26:48 10° N 08:31:00 80° WNW 08:31:36 64° SW visible
21 Mar ? 07:01:59 10° ENE 07:04:03 13° E 07:04:19 13° E visible
21 Mar ? 08:35:55 10° N 08:40:04 64° WNW 08:40:56 50° SW visible
22 Mar ? 07:10:32 10° NE 07:13:13 16° E 07:13:38 16° E visible
22 Mar ? 08:45:02 10° N 08:49:07 51° WNW 08:50:16 39° WSW visible
23 Mar ? 07:19:13 10° NE 07:22:21 20° E 07:22:57 20° ESE visible
23 Mar ? 08:54:10 10° N 08:58:08 41° WNW 08:59:34 30° WSW visible
24 Mar ? 07:27:59 10° NE 07:31:28 25° E 07:32:15 23° ESE visible
24 Mar ? 09:03:19 10° N 09:07:07 34° WNW 09:08:52 24° WSW visible
25 Mar ? 07:36:50 10° NNE 07:40:34 30° E 07:41:32 27° ESE visible
25 Mar ? 09:12:30 10° N 09:16:06 28° WNW 09:18:09 19° WSW visible
26 Mar ? 07:45:42 10° NNE 07:49:38 37° E 07:50:48 31° SE visible
26 Mar ? 09:21:41 10° NNW 09:25:02 23° WNW 09:27:25 15° WSW visible
27 Mar ? 07:54:36 10° NNE 07:58:40 46° E 08:00:04 33° SSE visible
27 Mar ? 09:30:56 10° NNW 09:33:57 20° WNW 09:36:41 11° WSW visible
28 Mar ? 08:03:31 10° NNE 08:07:42 58° E 08:09:18 34° SSE visible
28 Mar ? 09:40:14 10° NNW 09:42:51 16° WNW 09:45:29 10° W visible
29 Mar ? 08:12:28 10° NNE 08:16:41 73° ESE 08:18:32 33° S visible
